Location: Huberhof
(49.2050°N, 7.4980°E)
Time: 01:20:44
(UTC+00:00)

USA 215 - Pass Details

Date: 29 October 2020
Orbit: 1102 x 1106 km, 123.0° (Epoch: 23 November)

Event Time Altitude Azimuth Distance (km) Brightness Sun altitude
Exits shadow 19:57:29 57° 306° (NW) 1,284 3.7 -36.6°
Drops below altitude 10° 20:02:31 10° 304° (WNW) 2,966 6.2 -37.4°
Sets 20:05:00 0° 304° (NW) 3,926 7.1 -37.7°
